Regional Weather Roundup
Issued by NWS

Home | Current Version | Previous Version | Text Only | Print | Product List | Glossary On
Versions: 1 2 3 4 5 6 7 8 9 10 11 12 13 14 15 16 17 18 19 20 21 22 23 24 25 26 27
000
ASUS45 KBOU 050607
RWRCO

WEATHER ROUNDUP FOR COLORADO
NATIONAL WEATHER SERVICE DENVER/BOULDER CO
1100 PM MST SUN DEC 04 2016

NOTE: "FAIR" INDICATES FEW OR NO CLOUDS BELOW 12000 FEET WITH NO
SIGNIFICANT WEATHER AND/OR OBSTRUCTIONS TO VISIBILITY.

COZ001>005-013-030-031-050700-
...NORTHWEST COLORADO...

CITY           SKY/WX    TMP DP  RH WIND       PRES   REMARKS
CRAIG          CLOUDY    28  17  63 SE3       29.84F
HAYDEN         CLOUDY    27  14  59 E8        29.84F WCI  18
MEEKER         CLOUDY    35  16  45 SW14      29.86F WCI  26
MOUNT WERNER   NOT AVBL
STEAMBOAT SPGS CLOUDY    23  18  80 CALM      29.84F
WALDEN           N/A     30  16  55 S10       29.82F WCI  21
$$

COZ006>008-011-050700-
...WEST CENTRAL VALLEYS...

CITY           SKY/WX    TMP DP  RH WIND       PRES   REMARKS
GRAND JUNCTION FAIR      27  18  69 CALM      29.95F
MONTROSE       MOCLDY    25  17  72 SE6       29.98F WCI  18
EAGLE          CLOUDY    28  17  63 SE5       29.92F WCI  23
RIFLE          FAIR      28  20  71 W3        29.94F
DELTA          NOT AVBL
NUCLA          FAIR      28  14  54 SE6       30.04S WCI  22
$$

COZ017>023-064>068-050700-
...SOUTHWEST COLORADO...

CITY           SKY/WX    TMP DP  RH WIND       PRES   REMARKS
DURANGO        FAIR      20  16  84 CALM      30.06S
CORTEZ         FAIR      20  17  88 NE3       30.04F
PAGOSA SPRINGS FAIR      19  17  93 CALM      30.05F
TELLURIDE      NOT AVBL
WOLF CREEK PAS FAIR      18   9  68 S9        30.09F WCI   6
$$

COZ009-010-012-014-032>034-037-058>063-050700-
...CENTRAL COLORADO...

CITY           SKY/WX    TMP DP  RH WIND       PRES   REMARKS
ASPEN          CLOUDY    27  19  72 SW3       29.91F
BUENA VISTA    FAIR      38  13  36 W12G23    29.89F
COPPER MTN     CLOUDY    25  14  63 MISG      29.93F HAZE
BERTHOUD PASS  CLOUDY    18   5  57 W32G52    29.87F HAZE    WCI  -3
COTTONWOOD PAS FAIR      36  14  41 W38G53    29.87F
GUNNISON       FAIR      10   6  84 CALM      30.03F
KREMMLING      FAIR      39  18  41 W13G22    29.86F
LEADVILLE      FAIR      28  12  51 NE7       29.91F WCI  21
MONARCH PASS   FAIR      18  10  73 W35       30.07F WCI  -3
SALIDA         FAIR      40  12  31 SW21G30   29.95S
SUNLIGHT       MOCLDY    21  16  79 SW20G30   29.95F WCI   6
WILKERSON PASS FAIR      27  12  54 W22       29.87F WCI  12
$$

COZ069>075-050700-
...SAN LUIS VALLEY/SANGRE DE CRISTO MOUNTAINS...

CITY           SKY/WX    TMP DP  RH WIND       PRES   REMARKS
ALAMOSA        FAIR       4   1  88 SE7       29.99F WCI  -8
LA VETA PASS   FAIR      23  10  58 NE25G43   29.90F WCI   7
SAGUACHE       FAIR      14   5  67 NW3       30.00F
$$

COZ035-036-038>040-050700-
...NORTHERN COLORADO FRONT RANGE...

CITY           SKY/WX    TMP DP  RH WIND       PRES   REMARKS
DENVER INTL AP FAIR      32  14  47 S12       29.70F WCI  23
DMNS CITY PARK   N/A     36  12  37 SE20G26   29.69F
AURORA         PTCLDY    35  14  42 S12       29.71F WCI  26
FRONT RANGE AP FAIR      34  16  47 S8        29.71F WCI  27
ERIE MUNI ARPT FAIR      47  14  26 S5        29.69S
BOULDER MUN AP FAIR      50  19  29 S12G25    29.65F
CENTENNIAL     FAIR      35  16  45 SE10      29.70F WCI  27
BROOMFIELD     FAIR      41  12  30 SE5       29.70S
FORT COLLINS   FAIR      48  19  32 W17G28    29.68F
LONGMONT       FAIR      42  14  32 E8        29.68F
$$

COZ041-046-047-076>085-087-088-050700-
...PIKES PEAK/PALMER DIVIDE AND SOUTHERN FOOTHILLS...

CITY           SKY/WX    TMP DP  RH WIND       PRES   REMARKS
COLO. SPRINGS  FAIR      31   9  39 E13       29.78F WCI  21
A. F. ACADEMY  FAIR      25  11  53 NE7       29.77F WCI  18
SCHRIEVER AFB  NOT AVBL
ELLICOTT       FAIR       1  32 100 CALM      29.78F
FALCON         FAIR      39  11  31 W8        29.80F
FORT CARSON    FAIR      27  11  52 N8        29.76F WCI  19
LIMON          FAIR      16   9  74 N7        29.75F WCI   6
MONUMENT HILL  FAIR      32  14  47 S9        29.77F WCI  24
TRINIDAD       FAIR      39  13  34 W12       29.83F
$$

COZ042>045-048>051-090-091-050700-
...NORTHEAST COLORADO...

CITY           SKY/WX    TMP DP  RH WIND       PRES   REMARKS
GREELEY ARPT   FAIR      27  15  61 CALM      29.71F
AKRON          FAIR      41  13  31 SW17      29.70F
BURLINGTON     FAIR      28  13  53 SW8       29.74F WCI  20
WRAY           FAIR      34  16  47 SW6       29.72F WCI  29
STERLING       FAIR      32  14  47 S7        29.70F WCI  26
HOLYOKE        FAIR      37  16  41 SW8       29.71F
FORT MORGAN    FAIR      31  12  45 W6        29.72F WCI  25
$$

COZ086-089-092>099-050700-
...SOUTHEAST COLORADO...

CITY           SKY/WX    TMP DP  RH WIND       PRES   REMARKS
PUEBLO         FAIR      24  12  60 W7        29.78F WCI  16
LA JUNTA       FAIR      32  15  49 W12       29.77F WCI  23
LAMAR          FAIR      20  12  71 W6        29.77F WCI  12
SPRINGFIELD      N/A     30  18  60 S9        29.80F WCI  22
$$




USA.gov is the U.S. government's official web portal to all federal, state and local government web resources and services.